| time (UTC) | temp F | wind direction | speed knots | gust knots | rain 1hr in | rain 24hr in | rain mn in | humidity % | barometer mb |
| 20260507211547 | 64 | 98 | 2.6 | 8.7 | 0.00 | 0.17 | 0.13 | 32 | 1004.9 |
| 20260507210051 | 64 | 226 | 3.5 | 13.0 | 0.00 | 0.17 | 0.13 | 33 | 1004.8 |
| 20260507204556 | 64 | 146 | 2.6 | 10.4 | 0.00 | 0.18 | 0.13 | 33 | 1004.8 |
| 20260507203050 | 64 | 175 | 1.7 | 11.3 | 0.00 | 0.18 | 0.13 | 33 | 1004.8 |
| 20260507201547 | 65 | 82 | 1.7 | 6.1 | 0.00 | 0.18 | 0.13 | 32 | 1004.7 |
| 20260507200047 | 64 | 182 | 2.6 | 6.1 | 0.00 | 0.18 | 0.13 | 36 | 1004.9 |
| 20260507194546 | 64 | 126 | 1.7 | 9.6 | 0.00 | 0.20 | 0.13 | 29 | 1005.0 |
| 20260507193044 | 64 | 176 | 2.6 | 7.0 | 0.00 | 0.20 | 0.13 | 31 | 1005.1 |
| 20260507191543 | 64 | 200 | 3.5 | 8.7 | 0.00 | 0.20 | 0.13 | 32 | 1005.2 |
| 20260507190100 | 65 | 235 | 1.7 | 7.8 | 0.00 | 0.20 | 0.13 | 28 | 1005.4 |
| 20260507184548 | 65 | 152 | 1.7 | 7.8 | 0.00 | 0.20 | 0.13 | 31 | 1005.5 |
| 20260507183051 | 64 | 127 | 2.6 | 7.8 | 0.00 | 0.20 | 0.13 | 31 | 1005.7 |
| 20260507181551 | 64 | 131 | 2.6 | 8.7 | 0.00 | 0.20 | 0.13 | 36 | 1005.7 |
| 20260507180050 | 63 | 92 | 1.7 | 7.8 | 0.00 | 0.20 | 0.13 | 38 | 1005.8 |
| 20260507174542 | 63 | 72 | 1.7 | 9.6 | 0.00 | 0.20 | 0.13 | 41 | 1005.8 |
| 20260507173055 | 63 | 86 | 3.5 | 8.7 | 0.00 | 0.20 | 0.13 | 39 | 1005.7 |
| 20260507171546 | 63 | 201 | 3.5 | 9.6 | 0.00 | 0.20 | 0.13 | 42 | 1005.8 |
| 20260507170052 | 62 | 160 | 2.6 | 8.7 | 0.00 | 0.20 | 0.13 | 43 | 1005.9 |
| 20260507164549 | 62 | 172 | 1.7 | 7.0 | 0.00 | 0.20 | 0.13 | 47 | 1006.2 |
| 20260507163049 | 62 | 125 | 0.9 | 5.2 | 0.00 | 0.20 | 0.13 | 52 | 1006.2 |
| 20260507161552 | 61 | 156 | 3.5 | 7.8 | 0.00 | 0.20 | 0.13 | 52 | 1006.6 |
| 20260507160054 | 60 | 0 | 1.7 | 5.2 | 0.00 | 0.20 | 0.13 | 56 | 1006.6 |
| 20260507154544 | 60 | 213 | 1.7 | 7.0 | 0.00 | 0.20 | 0.13 | 54 | 1006.8 |
| 20260507153052 | 59 | 194 | 1.7 | 9.6 | 0.00 | 0.20 | 0.13 | 58 | 1006.9 |
| 20260507151549 | 59 | 142 | 1.7 | 7.8 | 0.00 | 0.20 | 0.13 | 56 | 1007.0 |
| 20260507150049 | 58 | 148 | 0.9 | 7.8 | 0.00 | 0.20 | 0.13 | 58 | 1007.2 |
| 20260507144550 | 58 | 104 | 0.9 | 4.3 | 0.00 | 0.20 | 0.13 | 58 | 1007.3 |
| 20260507143051 | 58 | 131 | 1.7 | 6.1 | 0.00 | 0.20 | 0.13 | 56 | 1007.5 |
| 20260507141559 | 57 | 127 | 0.0 | 4.3 | 0.00 | 0.20 | 0.13 | 58 | 1007.5 |
| 20260507140107 | 56 | 115 | 0.9 | 6.1 | 0.00 | 0.20 | 0.13 | 61 | 1007.4 |
| 20260507134547 | 55 | 49 | 0.0 | 6.1 | 0.00 | 0.20 | 0.13 | 63 | 1007.5 |
| 20260507133044 | 54 | 149 | 2.6 | 7.8 | 0.00 | 0.20 | 0.13 | 65 | 1007.5 |
| 20260507131601 | 53 | 81 | 0.9 | 5.2 | 0.00 | 0.20 | 0.13 | 69 | 1007.8 |
| 20260507130100 | 52 | 127 | 1.7 | 6.1 | 0.00 | 0.20 | 0.13 | 79 | 1007.7 |
| 20260507124603 | 51 | 297 | 2.6 | 7.0 | 0.00 | 0.20 | 0.13 | 81 | 1008.0 |
| 20260507123057 | 50 | 127 | 0.0 | 4.3 | 0.00 | 0.20 | 0.13 | 88 | 1008.0 |
| 20260507121549 | 50 | 142 | 0.0 | 4.3 | 0.00 | 0.20 | 0.13 | 91 | 1008.0 |
| 20260507120054 | 49 | 0 | 0.9 | 3.5 | 0.00 | 0.20 | 0.13 | 92 | 1007.7 |
| 20260507114550 | 48 | 0 | 0.0 | 1.7 | 0.00 | 0.20 | 0.13 | 92 | 1007.9 |
| 20260507113049 | 48 | 139 | 0.0 | 1.7 | 0.00 | 0.20 | 0.13 | 92 | 1007.6 |
| 20260507111548 | 48 | 110 | 0.0 | 2.6 | 0.00 | 0.20 | 0.13 | 92 | 1007.7 |
| 20260507110051 | 48 | 138 | 0.0 | 2.6 | 0.01 | 0.20 | 0.13 | 92 | 1007.4 |
| 20260507104551 | 48 | 0 | 0.0 | 0.0 | 0.02 | 0.20 | 0.13 | 93 | 1007.8 |
| 20260507103047 | 48 | 0 | 0.0 | 0.9 | 0.03 | 0.20 | 0.13 | 92 | 1007.8 |
| 20260507101549 | 48 | 0 | 0.0 | 0.9 | 0.05 | 0.20 | 0.13 | 92 | 1007.2 |
| 20260507100045 | 48 | 0 | 0.0 | 3.5 | 0.07 | 0.19 | 0.12 | 91 | 1007.1 |
| 20260507094546 | 48 | 86 | 0.0 | 4.3 | 0.08 | 0.18 | 0.11 | 90 | 1006.9 |
| 20260507093050 | 49 | 141 | 1.7 | 6.1 | 0.07 | 0.17 | 0.10 | 90 | 1006.8 |
| 20260507091549 | 49 | 146 | 0.9 | 3.5 | 0.06 | 0.15 | 0.08 | 90 | 1006.9 |
| 20260507090048 | 50 | 148 | 1.7 | 5.2 | 0.03 | 0.12 | 0.05 | 89 | 1007.3 |
| 20260507084553 | 50 | 0 | 0.9 | 4.3 | 0.01 | 0.10 | 0.03 | 89 | 1007.3 |
| 20260507083055 | 51 | 0 | 0.0 | 3.5 | 0.02 | 0.10 | 0.03 | 88 | 1006.7 |
| 20260507081548 | 52 | 131 | 1.7 | 5.2 | 0.01 | 0.09 | 0.02 | 88 | 1006.4 |
| 20260507080113 | 52 | 167 | 1.7 | 5.2 | 0.01 | 0.09 | 0.02 | 90 | 1006.8 |
| 20260507074547 | 53 | 0 | 0.0 | 3.5 | 0.01 | 0.09 | 0.02 | 87 | 1006.5 |
| 20260507073050 | 53 | 123 | 0.9 | 3.5 | 0.00 | 0.08 | 0.01 | 84 | 1006.5 |
| 20260507071600 | 54 | 139 | 0.9 | 3.5 | 0.00 | 0.08 | 0.01 | 83 | 1005.7 |
| 20260507070049 | 54 | 145 | 0.9 | 3.5 | 0.00 | 0.08 | 0.01 | 82 | 1005.8 |
| 20260507064556 | 54 | 135 | 0.9 | 5.2 | 0.00 | 0.08 | 0.01 | 83 | 1005.8 |
| 20260507063051 | 55 | 161 | 1.7 | 6.1 | 0.00 | 0.08 | 0.01 | 88 | 1005.8 |
| 20260507061550 | 56 | 130 | 0.9 | 2.6 | 0.01 | 0.08 | 0.01 | 88 | 1005.6 |
| 20260507060052 | 56 | 130 | 0.0 | 3.5 | 0.01 | 0.08 | 0.01 | 88 | 1005.9 |
| 20260507054550 | 56 | 146 | 0.0 | 6.1 | 0.01 | 0.08 | 0.01 | 88 | 1006.0 |
| 20260507053050 | 57 | 124 | 0.9 | 5.2 | 0.01 | 0.08 | 0.01 | 88 | 1006.2 |
| 20260507051545 | 57 | 161 | 0.0 | 6.1 | 0.00 | 0.07 | 0.00 | 89 | 1005.7 |
| 20260507050045 | 58 | 154 | 0.9 | 5.2 | 0.00 | 0.07 | 0.00 | 92 | 1005.8 |
| 20260507044543 | 58 | 161 | 1.7 | 4.3 | 0.00 | 0.07 | 0.00 | 92 | 1006.0 |
| 20260507043048 | 59 | 156 | 0.9 | 4.3 | 0.00 | 0.07 | 0.00 | 93 | 1005.8 |
| 20260507041558 | 59 | 87 | 0.0 | 1.7 | 0.00 | 0.07 | 0.00 | 94 | 1005.9 |
| 20260507040104 | 59 | 113 | 0.0 | 0.9 | 0.00 | 0.07 | 0.00 | 94 | 1006.1 |
| 20260507034556 | 59 | 155 | 0.0 | 1.7 | 0.00 | 0.07 | 0.07 | 94 | 1006.0 |
| 20260507033045 | 59 | 0 | 0.0 | 6.1 | 0.00 | 0.07 | 0.07 | 93 | 1006.0 |
| 20260507031548 | 59 | 328 | 0.9 | 3.5 | 0.00 | 0.07 | 0.07 | 93 | 1005.6 |
| 20260507030054 | 59 | 0 | 0.0 | 3.5 | 0.00 | 0.07 | 0.07 | 93 | 1005.4 |
| 20260507024548 | 59 | 73 | 0.9 | 3.5 | 0.00 | 0.07 | 0.07 | 94 | 1005.7 |
| 20260507023048 | 58 | 0 | 0.0 | 3.5 | 0.00 | 0.07 | 0.07 | 94 | 1005.6 |
| 20260507021548 | 58 | 89 | 0.0 | 1.7 | 0.00 | 0.07 | 0.07 | 94 | 1005.8 |
| 20260507020053 | 58 | 22 | 0.9 | 2.6 | 0.00 | 0.07 | 0.07 | 94 | 1005.6 |
| 20260507014600 | 58 | 91 | 0.9 | 4.3 | 0.00 | 0.07 | 0.07 | 94 | 1005.6 |
| 20260507013048 | 58 | 108 | 0.9 | 5.2 | 0.00 | 0.07 | 0.07 | 94 | 1005.8 |
| 20260507011557 | 58 | 65 | 0.9 | 4.3 | 0.00 | 0.07 | 0.07 | 94 | 1006.0 |
| 20260507010052 | 58 | 220 | 1.7 | 4.3 | 0.00 | 0.07 | 0.07 | 94 | 1006.1 |
| 20260507004553 | 57 | 110 | 0.9 | 4.3 | 0.01 | 0.07 | 0.07 | 93 | 1006.0 |
| 20260507003052 | 58 | 335 | 0.9 | 5.2 | 0.01 | 0.07 | 0.07 | 93 | 1006.1 |
| 20260507001559 | 58 | 0 | 0.9 | 5.2 | 0.02 | 0.07 | 0.07 | 93 | 1006.0 |
| 20260507000057 | 58 | 71 | 0.9 | 5.2 | 0.03 | 0.07 | 0.07 | 93 | 1005.7 |
| 20260506234555 | 58 | 0 | 0.0 | 5.2 | 0.02 | 0.06 | 0.06 | 93 | 1006.0 |
| 20260506233052 | 58 | 0 | 0.0 | 3.5 | 0.02 | 0.06 | 0.06 | 93 | 1005.7 |
| 20260506231551 | 59 | 318 | 0.9 | 3.5 | 0.01 | 0.05 | 0.05 | 92 | 1005.7 |
| 20260506230048 | 59 | 0 | 0.9 | 4.3 | 0.00 | 0.04 | 0.04 | 92 | 1005.8 |
| 20260506224554 | 59 | 75 | 0.9 | 6.1 | 0.00 | 0.04 | 0.04 | 92 | 1005.9 |
| 20260506223042 | 60 | 343 | 1.7 | 7.0 | 0.01 | 0.04 | 0.04 | 91 | 1006.1 |
| 20260506221549 | 60 | 12 | 1.7 | 7.0 | 0.01 | 0.04 | 0.04 | 91 | 1006.1 |
| 20260506220058 | 60 | 29 | 1.7 | 7.0 | 0.01 | 0.04 | 0.04 | 90 | 1006.2 |
| 20260506214547 | 61 | 79 | 0.0 | 7.8 | 0.01 | 0.04 | 0.04 | 88 | 1006.6 |
| 20260506213052 | 62 | 0 | 0.9 | 6.1 | 0.01 | 0.03 | 0.03 | 87 | 1006.7 |